ANE4082 GCLP-LEMD

Flight info

Callsign ANE4082
Flight time N/A
Altitude 36000
Route KORAL UG5 SONSO DCT NIRAL UN871 OSDAM UM985 ROMSO UG5 KORIS L27 VJF N10 SVL DCT HIJ M30 PARKA Z165 SOTUK
Aircraft CRJ9/M-SDFGIRWY/S

Departure

Time 2026-05-03 22:34
Airport Gran Canaria Airport (GCLP)

Arrival

Time N/A
Airport Adolfo Suárez Madrid–Barajas Airport (LEMD)
Time Latitude Longitude Altitude Speed Heading
2026-05-03 22:02 27.93229 -15.38897 55 ft 0 kts 291°
2026-05-03 22:07 27.93229 -15.38896 55 ft 0 kts 291°
2026-05-03 22:16 27.93229 -15.38895 55 ft 0 kts 291°
2026-05-03 22:18 27.93228 -15.38895 55 ft 0 kts 291°
2026-05-03 22:23 27.93228 -15.38894 55 ft 1 kts 292°
2026-05-03 22:23 27.93221 -15.38874 51 ft 2 kts 293°
2026-05-03 22:24 27.93210 -15.38857 52 ft 3 kts 290°
2026-05-03 22:24 27.93208 -15.38843 49 ft 4 kts 221°
2026-05-03 22:24 27.93229 -15.38834 54 ft 4 kts 200°
2026-05-03 22:24 27.93243 -15.38828 54 ft 0 kts 201°
2026-05-03 22:29 27.93238 -15.38830 54 ft 2 kts 201°
2026-05-03 22:29 27.93210 -15.38841 52 ft 6 kts 200°
2026-05-03 22:29 27.93159 -15.38866 56 ft 10 kts 207°
2026-05-03 22:29 27.93084 -15.38904 57 ft 15 kts 201°
2026-05-03 22:30 27.92961 -15.38959 58 ft 21 kts 200°
2026-05-03 22:30 27.92834 -15.39015 58 ft 19 kts 202°
2026-05-03 22:30 27.92717 -15.39065 62 ft 17 kts 200°
2026-05-03 22:30 27.92614 -15.39113 60 ft 16 kts 202°
2026-05-03 22:31 27.92511 -15.39157 64 ft 16 kts 202°
2026-05-03 22:31 27.92398 -15.39207 65 ft 19 kts 200°
2026-05-03 22:31 27.92272 -15.39262 66 ft 20 kts 201°
2026-05-03 22:31 27.92139 -15.39321 67 ft 21 kts 201°
2026-05-03 22:32 27.92004 -15.39381 71 ft 20 kts 201°
2026-05-03 22:32 27.91900 -15.39406 76 ft 9 kts 150°
2026-05-03 22:32 27.91868 -15.39354 67 ft 8 kts 111°
2026-05-03 22:32 27.91868 -15.39290 68 ft 9 kts 70°
2026-05-03 22:33 27.91906 -15.39230 72 ft 10 kts 33°
2026-05-03 22:33 27.91987 -15.39190 67 ft 25 kts 22°
2026-05-03 22:33 27.92329 -15.39040 61 ft 81 kts 21°
2026-05-03 22:33 27.93012 -15.38738 55 ft 128 kts 21°
2026-05-03 22:34 27.93963 -15.38321 74 ft 161 kts 21°
2026-05-03 22:34 27.95019 -15.37812 525 ft 164 kts 21°
2026-05-03 22:34 27.96046 -15.37302 1085 ft 162 kts 21°
2026-05-03 22:34 27.97167 -15.36766 1329 ft 188 kts 22°
2026-05-03 22:35 27.98385 -15.36161 2065 ft 188 kts 22°
2026-05-03 22:35 27.99552 -15.35563 2978 ft 186 kts 23°
2026-05-03 22:35 28.00486 -15.35079 3429 ft 197 kts 23°
2026-05-03 22:35 28.01751 -15.34421 4120 ft 203 kts 23°
2026-05-03 22:36 28.03032 -15.33744 4904 ft 206 kts 23°
2026-05-03 22:36 28.04337 -15.33054 5646 ft 210 kts 22°
2026-05-03 22:36 28.05689 -15.32343 6280 ft 218 kts 22°
2026-05-03 22:36 28.07142 -15.31588 6625 ft 241 kts 21°
2026-05-03 22:37 28.08725 -15.30770 7025 ft 259 kts 20°
2026-05-03 22:37 28.10502 -15.30299 7415 ft 269 kts 353°
2026-05-03 22:37 28.12199 -15.31028 7937 ft 273 kts 320°
2026-05-03 22:37 28.13769 -15.32250 8648 ft 279 kts 338°
2026-05-03 22:38 28.15716 -15.32391 9347 ft 291 kts 12°
2026-05-03 22:38 28.17504 -15.31270 10016 ft 303 kts 44°
2026-05-03 22:38 28.18591 -15.29216 10640 ft 312 kts 73°
2026-05-03 22:38 28.18726 -15.26697 10882 ft 333 kts 102°
2026-05-03 22:39 28.17781 -15.24270 11212 ft 345 kts 130°
2026-05-03 22:39 28.16019 -15.22382 11595 ft 355 kts 141°
2026-05-03 22:39 28.14561 -15.20090 12155 ft 366 kts 113°
2026-05-03 22:39 28.14119 -15.17240 12790 ft 373 kts 87°
2026-05-03 22:40 28.14754 -15.14395 13405 ft 376 kts 62°
2026-05-03 22:40 28.16346 -15.12071 14024 ft 375 kts 37°
2026-05-03 22:40 28.18607 -15.10675 14581 ft 371 kts 13°
2026-05-03 22:40 28.21098 -15.09872 15163 ft 375 kts 13°
2026-05-03 22:41 28.23561 -15.08827 15731 ft 382 kts 21°
2026-05-03 22:41 28.25922 -15.07383 16277 ft 389 kts 30°
2026-05-03 22:41 28.28046 -15.05513 16813 ft 396 kts 41°
2026-05-03 22:41 28.29890 -15.03156 17340 ft 402 kts 52°
2026-05-03 22:42 28.31466 -15.00504 17864 ft 407 kts 57°
2026-05-03 22:42 28.32605 -14.98414 18250 ft 410 kts 58°
2026-05-03 22:42 28.34089 -14.95632 18719 ft 414 kts 58°
2026-05-03 22:42 28.35615 -14.92839 19181 ft 417 kts 56°
2026-05-03 22:43 28.37184 -14.90118 19604 ft 421 kts 55°
2026-05-03 22:43 28.38813 -14.87340 20026 ft 424 kts 55°
2026-05-03 22:43 28.40450 -14.84520 20458 ft 428 kts 55°
2026-05-03 22:43 28.42089 -14.81681 20868 ft 432 kts 55°
2026-05-03 22:44 28.43746 -14.78819 21288 ft 435 kts 56°
2026-05-03 22:44 28.45413 -14.75936 21708 ft 437 kts 56°
2026-05-03 22:44 28.47088 -14.73036 22090 ft 441 kts 56°
2026-05-03 22:44 28.48775 -14.70113 22465 ft 444 kts 56°
2026-05-03 22:45 28.50477 -14.67173 22833 ft 447 kts 56°
2026-05-03 22:45 28.52187 -14.64210 23210 ft 450 kts 56°
2026-05-03 22:45 28.53907 -14.61222 23565 ft 453 kts 56°
2026-05-03 22:45 28.55538 -14.58395 23872 ft 455 kts 56°
2026-05-03 22:46 28.57279 -14.55368 24201 ft 457 kts 56°
2026-05-03 22:46 28.58968 -14.52436 24502 ft 459 kts 55°
2026-05-03 22:46 28.60720 -14.49389 24808 ft 461 kts 56°
2026-05-03 22:46 28.62478 -14.46325 25102 ft 463 kts 55°
2026-05-03 22:47 28.64248 -14.43248 25390 ft 466 kts 55°
2026-05-03 22:47 28.66023 -14.40153 25666 ft 468 kts 56°
2026-05-03 22:47 28.67806 -14.37041 25937 ft 470 kts 55°
2026-05-03 22:47 28.69598 -14.33915 26205 ft 472 kts 55°
2026-05-03 22:48 28.71395 -14.30774 26468 ft 474 kts 56°
2026-05-03 22:48 28.73197 -14.27626 26723 ft 476 kts 55°
2026-05-03 22:48 28.75008 -14.24456 26970 ft 478 kts 55°
2026-05-03 22:48 28.76735 -14.21429 27201 ft 480 kts 55°
2026-05-03 22:49 28.78541 -14.18274 27451 ft 482 kts 55°
2026-05-03 22:49 28.80365 -14.15069 27717 ft 483 kts 55°
2026-05-03 22:49 28.82199 -14.11849 27933 ft 485 kts 55°
2026-05-03 22:49 28.84040 -14.08617 28166 ft 486 kts 55°
2026-05-03 22:50 28.85886 -14.05371 28386 ft 488 kts 55°
2026-05-03 22:50 28.87740 -14.02112 28687 ft 488 kts 55°
2026-05-03 22:50 28.89259 -13.99438 28932 ft 488 kts 55°
2026-05-03 22:50 28.90927 -13.96496 29198 ft 487 kts 55°
2026-05-03 22:51 28.92771 -13.93253 29487 ft 487 kts 55°
2026-05-03 22:51 28.94612 -13.90002 29763 ft 487 kts 55°
2026-05-03 22:51 28.96339 -13.86953 30015 ft 487 kts 55°
2026-05-03 22:51 28.98177 -13.83707 30261 ft 487 kts 55°
2026-05-03 22:52 29.00017 -13.80451 30474 ft 487 kts 55°
2026-05-03 22:52 29.01383 -13.78039 30633 ft 487 kts 55°
2026-05-03 22:52 29.03221 -13.74783 30823 ft 488 kts 55°
2026-05-03 22:52 29.05036 -13.71569 31034 ft 488 kts 55°
2026-05-03 22:53 29.06878 -13.68311 31237 ft 488 kts 55°
2026-05-03 22:53 29.08713 -13.65046 31430 ft 488 kts 55°
2026-05-03 22:53 29.10552 -13.61782 31635 ft 488 kts 55°
2026-05-03 22:53 29.12389 -13.58516 31813 ft 488 kts 55°
2026-05-03 22:54 29.14223 -13.55250 32072 ft 487 kts 55°
2026-05-03 22:54 29.15963 -13.52152 32272 ft 487 kts 55°
2026-05-03 22:54 29.17845 -13.48926 32456 ft 486 kts 53°
2026-05-03 22:54 29.19802 -13.45768 32569 ft 486 kts 52°
2026-05-03 22:55 29.21708 -13.42731 32706 ft 487 kts 52°
2026-05-03 22:55 29.23686 -13.39580 32880 ft 487 kts 52°
2026-05-03 22:55 29.25646 -13.36410 33042 ft 488 kts 53°
2026-05-03 22:55 29.27592 -13.33231 33209 ft 488 kts 53°
2026-05-03 22:56 29.29541 -13.30051 33362 ft 488 kts 52°
2026-05-03 22:56 29.31488 -13.26863 33532 ft 488 kts 53°
2026-05-03 22:56 29.33432 -13.23679 33678 ft 488 kts 53°
2026-05-03 22:56 29.35376 -13.20481 33839 ft 488 kts 53°
2026-05-03 22:57 29.37214 -13.17462 33989 ft 488 kts 53°
2026-05-03 22:57 29.39159 -13.14267 34130 ft 488 kts 53°
2026-05-03 22:57 29.41104 -13.11065 34202 ft 490 kts 53°
2026-05-03 22:57 29.43049 -13.07865 34345 ft 490 kts 53°
2026-05-03 22:58 29.44994 -13.04657 34475 ft 489 kts 53°
2026-05-03 22:58 29.46942 -13.01442 34577 ft 490 kts 53°
2026-05-03 22:58 29.48434 -12.98982 34786 ft 487 kts 53°
2026-05-03 22:59 29.52236 -12.92698 35015 ft 488 kts 53°
2026-05-03 22:59 29.56104 -12.86292 35213 ft 488 kts 53°
2026-05-03 22:59 29.57996 -12.83163 35336 ft 488 kts 53°
2026-05-03 23:00 29.59888 -12.80027 35402 ft 489 kts 53°
2026-05-03 23:00 29.61822 -12.76818 35523 ft 488 kts 53°
2026-05-03 23:00 29.63760 -12.73603 35587 ft 489 kts 53°
2026-05-03 23:00 29.65695 -12.70386 35707 ft 489 kts 53°
2026-05-03 23:01 29.67633 -12.67163 35772 ft 489 kts 53°
2026-05-03 23:01 29.69541 -12.63988 35909 ft 488 kts 53°
2026-05-03 23:01 29.71468 -12.60776 36012 ft 488 kts 53°
2026-05-03 23:02 29.75313 -12.54320 36109 ft 490 kts 54°
2026-05-03 23:02 29.79106 -12.47875 36133 ft 494 kts 53°
2026-05-03 23:03 29.82895 -12.41481 36153 ft 499 kts 53°
2026-05-03 23:03 29.86820 -12.34845 36142 ft 503 kts 53°
2026-05-03 23:04 29.90102 -12.29277 36137 ft 506 kts 53°
2026-05-03 23:04 29.94069 -12.22524 36138 ft 510 kts 54°
2026-05-03 23:05 29.98069 -12.15715 36133 ft 514 kts 54°
2026-05-03 23:05 30.01674 -12.09944 36140 ft 515 kts 47°
2026-05-03 23:06 30.06623 -12.03983 36134 ft 513 kts 39°
2026-05-03 23:06 30.11269 -11.99072 36131 ft 509 kts 39°
2026-05-03 23:07 30.16272 -11.93487 36122 ft 506 kts 40°
2026-05-03 23:07 30.21272 -11.87879 36115 ft 502 kts 40°
2026-05-03 23:08 30.26275 -11.82259 36115 ft 499 kts 40°
2026-05-03 23:08 30.31106 -11.76824 36115 ft 495 kts 40°
2026-05-03 23:09 30.36027 -11.71277 36111 ft 492 kts 40°
2026-05-03 23:09 30.40915 -11.65759 36110 ft 489 kts 40°
2026-05-03 23:10 30.45678 -11.60381 36130 ft 487 kts 40°
2026-05-03 23:10 30.50509 -11.54910 36115 ft 484 kts 40°
2026-05-03 23:11 30.55311 -11.49467 36112 ft 481 kts 40°
2026-05-03 23:11 30.60094 -11.44038 36112 ft 480 kts 40°
2026-05-03 23:12 30.64739 -11.38762 36104 ft 478 kts 40°
2026-05-03 23:12 30.69450 -11.33400 36118 ft 476 kts 41°
2026-05-03 23:13 30.74088 -11.28080 36102 ft 475 kts 41°
2026-05-03 23:13 30.78775 -11.22686 36117 ft 473 kts 40°
2026-05-03 23:14 30.83471 -11.17331 36118 ft 472 kts 40°
2026-05-03 23:14 30.88141 -11.11982 36110 ft 472 kts 40°
2026-05-03 23:15 30.92720 -11.06731 36112 ft 475 kts 40°
2026-05-03 23:15 30.97438 -11.01297 36114 ft 478 kts 41°
2026-05-03 23:16 31.01110 -10.97057 36117 ft 480 kts 41°
2026-05-03 23:16 31.05798 -10.91663 36135 ft 483 kts 40°
2026-05-03 23:17 31.10607 -10.86128 36119 ft 486 kts 41°
2026-05-03 23:17 31.15416 -10.80566 36112 ft 487 kts 41°
2026-05-03 23:18 31.20239 -10.74987 36114 ft 488 kts 41°
2026-05-03 23:18 31.24952 -10.69531 36101 ft 489 kts 41°
2026-05-03 23:19 31.29780 -10.63929 36104 ft 490 kts 41°
2026-05-03 23:19 31.34554 -10.58381 36105 ft 490 kts 41°
2026-05-03 23:20 31.39366 -10.52782 36108 ft 491 kts 41°
2026-05-03 23:20 31.44219 -10.47128 36105 ft 492 kts 41°
2026-05-03 23:21 31.49070 -10.41464 36100 ft 493 kts 41°
2026-05-03 23:21 31.53815 -10.35918 36101 ft 493 kts 41°
2026-05-03 23:22 31.61076 -10.27413 36100 ft 494 kts 41°
2026-05-03 23:22 31.65870 -10.21788 36100 ft 495 kts 41°
2026-05-03 23:23 31.70733 -10.16056 36104 ft 496 kts 41°
2026-05-03 23:23 31.75622 -10.10321 36102 ft 496 kts 41°
2026-05-03 23:24 31.80504 -10.04565 36108 ft 497 kts 41°
2026-05-03 23:24 31.84752 -9.99544 36105 ft 497 kts 41°
2026-05-03 23:25 31.89594 -9.93815 36102 ft 498 kts 41°
2026-05-03 23:25 31.94407 -9.88119 36106 ft 498 kts 41°
2026-05-03 23:26 31.99292 -9.82324 36101 ft 499 kts 41°
2026-05-03 23:26 32.03612 -9.77187 36105 ft 499 kts 41°
2026-05-03 23:27 32.08507 -9.71367 36104 ft 500 kts 41°
2026-05-03 23:27 32.13293 -9.65665 36099 ft 500 kts 41°
2026-05-03 23:28 32.18163 -9.59850 36102 ft 501 kts 41°
2026-05-03 23:28 32.22980 -9.54091 36103 ft 501 kts 41°
2026-05-03 23:29 32.27879 -9.48225 36120 ft 502 kts 41°
2026-05-03 23:29 32.32788 -9.42335 36098 ft 502 kts 41°
2026-05-03 23:30 32.37670 -9.36469 36098 ft 503 kts 41°
2026-05-03 23:30 32.42453 -9.30714 36100 ft 503 kts 42°
2026-05-03 23:31 32.47358 -9.24800 36101 ft 503 kts 42°
2026-05-03 23:31 32.52175 -9.18985 36106 ft 504 kts 42°
2026-05-03 23:32 32.57098 -9.13030 36131 ft 505 kts 42°
2026-05-03 23:32 32.62016 -9.07074 36111 ft 506 kts 42°
2026-05-03 23:33 32.66939 -9.01100 36112 ft 506 kts 42°
2026-05-03 23:33 32.71139 -8.95992 36114 ft 507 kts 42°
2026-05-03 23:34 32.76065 -8.89999 36105 ft 507 kts 42°
2026-05-03 23:34 32.80996 -8.83988 36104 ft 508 kts 42°
2026-05-03 23:35 32.85842 -8.78066 36132 ft 508 kts 42°
2026-05-03 23:35 32.90782 -8.72027 36105 ft 509 kts 42°
2026-05-03 23:36 32.95719 -8.65978 36104 ft 509 kts 42°
2026-05-03 23:36 33.00275 -8.60382 36104 ft 509 kts 42°
2026-05-03 23:37 33.04882 -8.54717 36101 ft 510 kts 42°
2026-05-03 23:37 33.09817 -8.48643 36103 ft 510 kts 42°
2026-05-03 23:38 33.14671 -8.42655 36106 ft 510 kts 42°
2026-05-03 23:38 33.19671 -8.36739 36107 ft 506 kts 34°
2026-05-03 23:39 33.25437 -8.32038 36100 ft 499 kts 25°
2026-05-03 23:39 33.31426 -8.27813 36104 ft 501 kts 26°
2026-05-03 23:40 33.37185 -8.23458 36101 ft 502 kts 27°
2026-05-03 23:40 33.43000 -8.19072 36121 ft 503 kts 27°
2026-05-03 23:41 33.48915 -8.14599 36099 ft 503 kts 27°
2026-05-03 23:41 33.54846 -8.10105 36100 ft 504 kts 27°
2026-05-03 23:42 33.60770 -8.05607 36097 ft 504 kts 27°
2026-05-03 23:42 33.66701 -8.01098 36093 ft 504 kts 27°
2026-05-03 23:43 33.71851 -7.97178 36107 ft 505 kts 27°
2026-05-03 23:43 33.77754 -7.92678 36104 ft 505 kts 27°
2026-05-03 23:44 33.83561 -7.88244 36104 ft 506 kts 27°
2026-05-03 23:44 33.89496 -7.83701 36102 ft 506 kts 27°
2026-05-03 23:45 33.95436 -7.79148 36093 ft 506 kts 27°
2026-05-03 23:45 34.00557 -7.75216 36113 ft 506 kts 27°
2026-05-03 23:46 34.06506 -7.70647 36103 ft 507 kts 27°
2026-05-03 23:46 34.12422 -7.66091 36088 ft 498 kts 26°
2026-05-03 23:47 34.18184 -7.61648 36079 ft 484 kts 26°
2026-05-03 23:47 34.23790 -7.57327 36084 ft 476 kts 26°
2026-05-03 23:48 34.29174 -7.53158 36109 ft 478 kts 26°
2026-05-03 23:48 34.34778 -7.48818 36105 ft 479 kts 26°
2026-05-03 23:49 34.40403 -7.44451 36103 ft 480 kts 26°
2026-05-03 23:49 34.46036 -7.40071 36105 ft 482 kts 26°
2026-05-03 23:50 34.50730 -7.36418 36105 ft 483 kts 26°
2026-05-03 23:50 34.57246 -7.31330 36108 ft 485 kts 26°
2026-05-03 23:51 34.62891 -7.26922 36101 ft 486 kts 26°
2026-05-03 23:51 34.68586 -7.22466 36100 ft 487 kts 26°
2026-05-03 23:52 34.74122 -7.18126 36089 ft 484 kts 26°
2026-05-03 23:52 34.79785 -7.13680 36121 ft 485 kts 26°
2026-05-03 23:53 34.85455 -7.09221 36096 ft 485 kts 26°
2026-05-03 23:53 34.91026 -7.04834 36093 ft 486 kts 26°
2026-05-03 23:54 34.95733 -7.01121 36093 ft 486 kts 26°
2026-05-03 23:54 35.01005 -6.96952 36089 ft 486 kts 26°
2026-05-03 23:55 35.06687 -6.92455 36107 ft 486 kts 26°
2026-05-03 23:55 35.11411 -6.88719 36090 ft 487 kts 26°
2026-05-03 23:56 35.16941 -6.84330 36088 ft 487 kts 26°
2026-05-03 23:56 35.22631 -6.79801 36083 ft 487 kts 26°
2026-05-03 23:57 35.28320 -6.75269 36083 ft 488 kts 26°
2026-05-03 23:57 35.33698 -6.70136 36104 ft 499 kts 44°
2026-05-03 23:58 35.38020 -6.63420 36092 ft 504 kts 54°
2026-05-03 23:58 35.41500 -6.55923 36086 ft 506 kts 59°
2026-05-03 23:59 35.43383 -6.52375 36080 ft 500 kts 46°
2026-05-03 23:59 35.45656 -6.49490 36084 ft 492 kts 34°
2026-05-03 23:59 35.51199 -6.44764 36084 ft 481 kts 22°
2026-05-04 00:00 35.57131 -6.41078 36084 ft 477 kts 18°
2026-05-04 00:00 35.63066 -6.37326 36081 ft 480 kts 20°
2026-05-04 00:01 35.68974 -6.33458 36074 ft 481 kts 20°
2026-05-04 00:01 35.74845 -6.29638 36072 ft 481 kts 20°
2026-05-04 00:02 35.80744 -6.25697 36075 ft 482 kts 20°
2026-05-04 00:02 35.86661 -6.21801 36071 ft 481 kts 20°
2026-05-04 00:03 35.92566 -6.17985 36076 ft 481 kts 20°
2026-05-04 00:03 35.98437 -6.14187 36071 ft 482 kts 20°
2026-05-04 00:04 36.03621 -6.10812 36070 ft 482 kts 20°
2026-05-04 00:04 36.09564 -6.06948 36081 ft 482 kts 20°
2026-05-04 00:05 36.15516 -6.03071 36079 ft 484 kts 20°
2026-05-04 00:05 36.20788 -5.99631 36070 ft 483 kts 19°
2026-05-04 00:06 36.23849 -5.98063 36077 ft 470 kts
2026-05-04 00:06 36.26990 -5.97042 36087 ft 464 kts
2026-05-04 00:06 36.33232 -5.95843 36080 ft 455 kts 356°
2026-05-04 00:07 36.39528 -5.94910 36084 ft 457 kts 358°
2026-05-04 00:07 36.45843 -5.93798 36077 ft 458 kts 358°
2026-05-04 00:08 36.52162 -5.92675 36067 ft 459 kts 358°
2026-05-04 00:08 36.58440 -5.91558 36056 ft 460 kts 358°
2026-05-04 00:09 36.64781 -5.90424 36066 ft 461 kts 358°
2026-05-04 00:09 36.71148 -5.89289 36051 ft 462 kts 358°
2026-05-04 00:10 36.77481 -5.88157 36055 ft 463 kts 358°
2026-05-04 00:10 36.83875 -5.87009 36055 ft 464 kts 358°
2026-05-04 00:11 36.90216 -5.85872 36058 ft 465 kts 359°
2026-05-04 00:11 36.96627 -5.84716 36057 ft 466 kts 358°
2026-05-04 00:12 37.02296 -5.83696 36049 ft 466 kts 359°
2026-05-04 00:12 37.08687 -5.82541 36049 ft 467 kts 358°
2026-05-04 00:13 37.15074 -5.81385 36054 ft 468 kts 359°
2026-05-04 00:13 37.21488 -5.80225 36046 ft 469 kts 359°
2026-05-04 00:14 37.27910 -5.79060 36026 ft 469 kts 359°
2026-05-04 00:14 37.34376 -5.77884 36050 ft 469 kts 359°
2026-05-04 00:15 37.40808 -5.76655 36016 ft 476 kts
2026-05-04 00:15 37.47109 -5.73942 36029 ft 489 kts 16°
2026-05-04 00:16 37.53241 -5.70072 36028 ft 494 kts 20°
2026-05-04 00:16 37.59374 -5.66177 36066 ft 492 kts 18°
2026-05-04 00:17 37.65565 -5.62470 36038 ft 493 kts 18°
2026-05-04 00:17 37.71698 -5.58724 36048 ft 494 kts 18°
2026-05-04 00:18 37.77890 -5.54956 36033 ft 494 kts 18°
2026-05-04 00:18 37.84099 -5.51168 36064 ft 495 kts 18°
2026-05-04 00:19 37.90272 -5.47393 36046 ft 497 kts 18°
2026-05-04 00:19 37.96438 -5.43614 36035 ft 497 kts 18°
2026-05-04 00:20 38.01978 -5.40217 36035 ft 498 kts 18°
2026-05-04 00:20 38.08212 -5.36384 36067 ft 498 kts 18°
2026-05-04 00:21 38.14458 -5.32535 36018 ft 499 kts 19°
2026-05-04 00:21 38.20708 -5.28685 36029 ft 499 kts 18°
2026-05-04 00:22 38.26896 -5.24853 36026 ft 499 kts 18°
2026-05-04 00:22 38.33105 -5.21010 36026 ft 499 kts 18°
2026-05-04 00:23 38.39353 -5.17131 36026 ft 499 kts 19°
2026-05-04 00:23 38.45607 -5.13250 36028 ft 499 kts 17°
2026-05-04 00:24 38.48819 -5.11751 36024 ft 484 kts
2026-05-04 00:24 38.52088 -5.11061 36034 ft 472 kts 355°
2026-05-04 00:24 38.58520 -5.10675 36048 ft 462 kts 348°
2026-05-04 00:25 38.64853 -5.11355 36026 ft 454 kts 343°
2026-05-04 00:25 38.71158 -5.12154 36023 ft 457 kts 345°
2026-05-04 00:26 38.77494 -5.12803 36019 ft 457 kts 345°
2026-05-04 00:26 38.83739 -5.13431 36008 ft 457 kts 346°
2026-05-04 00:27 38.90176 -5.12905 36021 ft 481 kts
2026-05-04 00:27 38.93331 -5.11328 36030 ft 492 kts 21°
2026-05-04 00:27 38.96263 -5.09151 36043 ft 497 kts 27°
2026-05-04 00:28 39.01354 -5.04704 36050 ft 501 kts 31°
2026-05-04 00:28 39.06919 -4.99244 36037 ft 505 kts 35°
2026-05-04 00:29 39.11699 -4.92692 36016 ft 512 kts 57°
2026-05-04 00:29 39.13325 -4.88612 36047 ft 512 kts 70°
2026-05-04 00:29 39.14374 -4.84213 35422 ft 517 kts 80°
2026-05-04 00:30 39.14946 -4.81236 34800 ft 520 kts 73°
2026-05-04 00:30 39.16977 -4.75572 33517 ft 523 kts 55°
2026-05-04 00:30 39.19113 -4.72079 33109 ft 507 kts 43°
2026-05-04 00:30 39.21680 -4.69002 32674 ft 500 kts 36°
2026-05-04 00:31 39.24381 -4.66143 32250 ft 501 kts 34°
2026-05-04 00:31 39.27132 -4.63383 31849 ft 501 kts 33°
2026-05-04 00:31 39.29903 -4.60645 31446 ft 502 kts 33°
2026-05-04 00:31 39.32635 -4.57809 31045 ft 507 kts 38°
2026-05-04 00:32 39.35138 -4.54676 30646 ft 513 kts 43°
2026-05-04 00:32 39.37585 -4.51308 30256 ft 516 kts 45°
2026-05-04 00:32 39.40048 -4.47888 29808 ft 519 kts 44°
2026-05-04 00:32 39.42557 -4.44524 29344 ft 520 kts 43°
2026-05-04 00:33 39.45087 -4.41260 28893 ft 521 kts 42°
2026-05-04 00:33 39.50213 -4.34708 28048 ft 524 kts 43°
2026-05-04 00:33 39.52793 -4.31368 27621 ft 521 kts 44°
2026-05-04 00:34 39.55285 -4.28058 27181 ft 504 kts 44°
2026-05-04 00:34 39.57707 -4.24865 26843 ft 490 kts 43°
2026-05-04 00:34 39.60102 -4.21735 26505 ft 488 kts 44°
2026-05-04 00:34 39.62430 -4.18678 26194 ft 487 kts 44°
2026-05-04 00:35 39.64814 -4.15556 25876 ft 485 kts 44°
2026-05-04 00:35 39.67176 -4.12450 25561 ft 481 kts 44°
2026-05-04 00:35 39.69524 -4.09377 25245 ft 478 kts 44°
2026-05-04 00:35 39.71810 -4.06322 24937 ft 475 kts 45°
2026-05-04 00:36 39.74069 -4.03328 24671 ft 472 kts 44°
2026-05-04 00:36 39.76364 -4.00298 24365 ft 469 kts 44°
2026-05-04 00:36 39.78653 -3.97282 23971 ft 468 kts 44°
2026-05-04 00:36 39.80928 -3.94276 23502 ft 466 kts 44°
2026-05-04 00:37 39.83007 -3.91070 22941 ft 463 kts 60°
2026-05-04 00:37 39.84196 -3.87255 22405 ft 452 kts 81°
2026-05-04 00:37 39.84345 -3.83251 21893 ft 437 kts 102°
2026-05-04 00:37 39.83482 -3.79563 21375 ft 418 kts 124°
2026-05-04 00:38 39.81760 -3.76665 20896 ft 396 kts 146°